Location: Unspecified
(0.0000°N, 0.0000°E)
Time: 18:12:41
(UTC+00:00)

STARLINK 1019 - Pass Details

Date: 17 January 2020
Orbit: 344 x 355 km, 53.0° (Epoch: 18 January)

Event Time Altitude Azimuth Distance (km) Brightness Sun altitude
Rises 05:21:47 0° 211° (SSW) 2,154 6.6 -11.2°
Reaches altitude 10° 05:23:49 10° 208° (SSW) 1,307 5.5 -10.7°
Maximum altitude 05:26:43 68° 124° (SE) 375 3.0 -10.1°
Drops below altitude 10° 05:29:34 10° 40° (NE) 1,294 5.8 -9.4°
Sets 05:31:34 0° 38° (NE) 2,129 6.9 -8.9°
